ESSA 2 (OT-2)

Satellite information

Favourite Embed

Satellite Type and Status

PAYLOADIN ORBIT

Key statistics

Satellite ESSA 2 (OT-2) at a glance.

Uptime

21799

Days in orbit

Revolutions

≈ 12.7

Per day

Orbit

SSO

Sun Synchronous Orbit

Inclination

101.2

Latest

Satellite identification and parameters

Extended collection of information and parameters for ESSA 2 (OT-2).

Object identification

Identified? True

Debris? False

Object name: ESSA 2 (OT-2)

International designator: 1966-016A

Object number (NORAD): 2091

Object ID (CCSDS): 2091

Country: UNITED STATES OF AMERICA (US)

Current information (Y/N): Y

RCS size: MEDIUM

Orbital parameters

Period: 113.437 minutes

Inclination: 101.2368 deg

SMA: 7762.416 km

Apoapsis: 1414.509 km

Periapsis: 1354.053 km

RAAN: 217.4369 deg

Eccentricy: 0.0038942

Argument of periapsis: 354.7785 deg

Mean anomaly: 32.8964 deg

Mean motion: 12.69426029 rev/day

Mean motion (dot): -0.00000041 rev/day2

B* drag term: 0.000016161 1/REarth

Two-line elements (TLE)

Creation date: Nov. 3, 2025, 11:16 p.m.

Reference frame: TEME

Reference center: EARTH

Epoch: Nov. 3, 2025, 4:40 p.m. UTC

TLE line 0: 0 ESSA 2 (OT-2)

TLE line 1: 1 2091U 66016A 25307.69488972 -.00000041 00000-0 16161-4 0 9996

TLE line 2: 2 2091 101.2368 217.4369 0038942 354.7785 32.8964 12.69426029765014

Live tracking on map

Real-time ground track for satellite ESSA 2 (OT-2).

In-orbit conjunctions

There are no conjunctions computed for ESSA 2 (OT-2), at the moment. Check back to stay up to date, as we update our databases every day.

Go to all conjunctions

Associated space launch

The ESSA series was the second generation of US meterological satellites after the TIROS (Television & Infra-Red Observation Satellite) series. They were also called OT (Operational TIROS), TOS (TIROS Operational Satellite).

ESSA 2 (OT-2) was lifted into orbit during the mission ‘Thor Delta E | ESSA 2’, on board a Thor Delta E space rocket.

The launch took place on Feb. 28, 1966, 1:58 p.m. from Space Launch Complex 17B.

For more information about the launch, click the button.

Launch to space Thor Delta E | ESSA 2
Thor Delta E | ESSA 2

Agency: N/A

Status: Launch Successful

Launch date: Feb. 28, 1966, 1:58 p.m. UTC

Rocket: Thor Delta E

Launch pad: Space Launch Complex 17B

Location: Cape Canaveral SFS, FL, USA

...

Latest news about this satellite

There are no fresh news available about this satellite. Check back as we update our databases every day.


Newsletter sign-up

Weekly statistics, charts and insights to help you stay on top of the space industry.